Multibeam Report for FK005C


Ship Name: Falkor
Chief Scientist: Stunz, Greg
Texas A&M University
Source Organization: Rolling Deck to Repository
Start Date: 2012-10-08
End Date: 2012-10-20


View ISO Metadata

Visit the full NCEI Bathymetry Viewer


Multibeam Bathymetry

Cruise Details

Project: Sustainability of Reef Fishes and Causes of Harmful Algal Blooms
Instrument: Kongsberg EM710

Data Quality

Number of Files: 718
Number of Records: 6733491
BATHYMETRY DATA Quantity Percentage
Number of Beams 2693386000 100%
Number of Good Beams 2680967311 99.54%
Number of Zero Beams 0 0%
Number of Flagged Beams 12418689 0.46%
AMPLITUDE DATA Quantity Percentage
Number of Beams 2693386000 100%
Number of Good Beams 2680967311 99.54%
Number of Zero Beams 0 0%
Number of Flagged Beams 12418689 0.46%
SIDESCAN DATA Quantity Percentage
Number of Pixels 6895068160 100%
Number of Good Pixels 5710413267 82.82%
Number of Zero Pixels 0 0%
Number of Flagged Pixels 1184654893 17.18%

Navigation Totals

Total Time: 201.1307 hours
Total Track Length: 3358.6953 km
Average Speed: 16.699 km/hr (9.0167 knots)

Cruise Bounds

Northern Extent: 28.33591
Southern Extent: 26.854183
Western Extent: -97.33234
Eastern Extent: -95.49069

Limits

Minimum Sonar Depth 2.2819 Maximum Sonar Depth 8.4419
Minimum Altitude 0.1586 Maximum Altitude 1371.8733
Minimum Depth 4.5758 Maximum Depth 1714.0093
Minimum Amplitude 0 Maximum Amplitude 81.9
Minimum Sidescan 0 Maximum Sidescan 327.66

File Information

Full Resolution Bathymetry as collected (raw): 715

Files File Size Description
0000_20121009_000855_FK_EM710.all.mb58.gz 695.35MB Kongsberg multibeam vendor format
0001_20121009_003855_FK_EM710.all.mb58.gz 652.22MB Kongsberg multibeam vendor format
0002_20121009_010855_FK_EM710.all.mb58.gz 566.50MB Kongsberg multibeam vendor format
0003_20121009_013855_FK_EM710.all.mb58.gz 546.24MB Kongsberg multibeam vendor format
0004_20121009_020855_FK_EM710.all.mb58.gz 528.52MB Kongsberg multibeam vendor format
0005_20121009_023855_FK_EM710.all.mb58.gz 511.96MB Kongsberg multibeam vendor format
0006_20121009_030855_FK_EM710.all.mb58.gz 502.63MB Kongsberg multibeam vendor format
0007_20121009_033855_FK_EM710.all.mb58.gz 499.58MB Kongsberg multibeam vendor format
0008_20121009_040855_FK_EM710.all.mb58.gz 506.01MB Kongsberg multibeam vendor format
0009_20121009_043855_FK_EM710.all.mb58.gz 503.92MB Kongsberg multibeam vendor format
0010_20121009_050855_FK_EM710.all.mb58.gz 492.06MB Kongsberg multibeam vendor format
0011_20121009_053855_FK_EM710.all.mb58.gz 476.16MB Kongsberg multibeam vendor format
0012_20121009_060855_FK_EM710.all.mb58.gz 476.06MB Kongsberg multibeam vendor format
0013_20121009_063855_FK_EM710.all.mb58.gz 470.42MB Kongsberg multibeam vendor format
0014_20121009_070856_FK_EM710.all.mb58.gz 467.37MB Kongsberg multibeam vendor format
0015_20121009_073856_FK_EM710.all.mb58.gz 469.83MB Kongsberg multibeam vendor format
0016_20121009_080856_FK_EM710.all.mb58.gz 473.93MB Kongsberg multibeam vendor format
0017_20121009_083856_FK_EM710.all.mb58.gz 484.19MB Kongsberg multibeam vendor format
0018_20121009_090856_FK_EM710.all.mb58.gz 474.75MB Kongsberg multibeam vendor format
0019_20121009_093856_FK_EM710.all.mb58.gz 471.75MB Kongsberg multibeam vendor format
0020_20121009_100856_FK_EM710.all.mb58.gz 472.20MB Kongsberg multibeam vendor format
0021_20121009_103856_FK_EM710.all.mb58.gz 444.43MB Kongsberg multibeam vendor format
0022_20121009_110856_FK_EM710.all.mb58.gz 423.50MB Kongsberg multibeam vendor format
0023_20121009_113856_FK_EM710.all.mb58.gz 402.79MB Kongsberg multibeam vendor format
0024_20121009_120856_FK_EM710.all.mb58.gz 200.71MB Kongsberg multibeam vendor format
0025_20121009_122445_FK_EM710.all.mb58.gz 44.75MB Kongsberg multibeam vendor format
0026_20121009_122816_FK_EM710.all.mb58.gz 40.55MB Kongsberg multibeam vendor format
0027_20121009_123134_FK_EM710.all.mb58.gz 40.45MB Kongsberg multibeam vendor format
0028_20121009_123445_FK_EM710.all.mb58.gz 37.79MB Kongsberg multibeam vendor format
0029_20121009_123754_FK_EM710.all.mb58.gz 42.68MB Kongsberg multibeam vendor format
0030_20121009_124117_FK_EM710.all.mb58.gz 56.66MB Kongsberg multibeam vendor format
0031_20121009_124554_FK_EM710.all.mb58.gz 41.30MB Kongsberg multibeam vendor format
0032_20121009_124910_FK_EM710.all.mb58.gz 37.51MB Kongsberg multibeam vendor format
0033_20121009_125217_FK_EM710.all.mb58.gz 47.97MB Kongsberg multibeam vendor format
0034_20121009_125604_FK_EM710.all.mb58.gz 57.45MB Kongsberg multibeam vendor format
0035_20121009_130043_FK_EM710.all.mb58.gz 104.93MB Kongsberg multibeam vendor format
0036_20121009_234546_FK_EM710.all.mb58.gz 369.14MB Kongsberg multibeam vendor format
0037_20121010_001546_FK_EM710.all.mb58.gz 358.35MB Kongsberg multibeam vendor format
0038_20121010_004546_FK_EM710.all.mb58.gz 353.23MB Kongsberg multibeam vendor format
0039_20121010_011546_FK_EM710.all.mb58.gz 345.98MB Kongsberg multibeam vendor format
0040_20121010_014546_FK_EM710.all.mb58.gz 337.00MB Kongsberg multibeam vendor format
0041_20121010_021546_FK_EM710.all.mb58.gz 326.17MB Kongsberg multibeam vendor format
0042_20121010_024546_FK_EM710.all.mb58.gz 255.48MB Kongsberg multibeam vendor format
0043_20121010_030949_FK_EM710.all.mb58.gz 36.68MB Kongsberg multibeam vendor format
0044_20121010_031321_FK_EM710.all.mb58.gz 47.71MB Kongsberg multibeam vendor format
0044_20121010_032805_FK_EM710.all.mb58.gz 308.84MB Kongsberg multibeam vendor format
0045_20121010_035805_FK_EM710.all.mb58.gz 310.32MB Kongsberg multibeam vendor format
0046_20121010_042806_FK_EM710.all.mb58.gz 289.04MB Kongsberg multibeam vendor format
0047_20121010_045805_FK_EM710.all.mb58.gz 256.68MB Kongsberg multibeam vendor format
0048_20121010_052806_FK_EM710.all.mb58.gz 234.17MB Kongsberg multibeam vendor format
0049_20121010_055806_FK_EM710.all.mb58.gz 219.06MB Kongsberg multibeam vendor format
0050_20121010_062806_FK_EM710.all.mb58.gz 207.83MB Kongsberg multibeam vendor format
0051_20121010_065806_FK_EM710.all.mb58.gz 200.88MB Kongsberg multibeam vendor format
0052_20121010_072806_FK_EM710.all.mb58.gz 194.69MB Kongsberg multibeam vendor format
0053_20121010_075806_FK_EM710.all.mb58.gz 188.07MB Kongsberg multibeam vendor format
0054_20121010_082806_FK_EM710.all.mb58.gz 166.13MB Kongsberg multibeam vendor format
0055_20121010_085806_FK_EM710.all.mb58.gz 66.26MB Kongsberg multibeam vendor format
0056_20121010_094856_FK_EM710.all.mb58.gz 183.35MB Kongsberg multibeam vendor format
0057_20121010_101855_FK_EM710.all.mb58.gz 214.06MB Kongsberg multibeam vendor format
0058_20121010_104855_FK_EM710.all.mb58.gz 236.07MB Kongsberg multibeam vendor format
0059_20121010_111856_FK_EM710.all.mb58.gz 257.45MB Kongsberg multibeam vendor format
0060_20121010_114856_FK_EM710.all.mb58.gz 287.05MB Kongsberg multibeam vendor format
0061_20121010_121856_FK_EM710.all.mb58.gz 321.32MB Kongsberg multibeam vendor format
0062_20121010_124856_FK_EM710.all.mb58.gz 362.88MB Kongsberg multibeam vendor format
0063_20121010_131856_FK_EM710.all.mb58.gz 261.63MB Kongsberg multibeam vendor format
0064_20121010_135944_FK_EM710.all.mb58.gz 412.58MB Kongsberg multibeam vendor format
0065_20121010_142944_FK_EM710.all.mb58.gz 491.60MB Kongsberg multibeam vendor format
0066_20121010_145944_FK_EM710.all.mb58.gz 581.15MB Kongsberg multibeam vendor format
0067_20121010_152944_FK_EM710.all.mb58.gz 662.77MB Kongsberg multibeam vendor format
0068_20121010_155944_FK_EM710.all.mb58.gz 715.91MB Kongsberg multibeam vendor format
0069_20121010_162944_FK_EM710.all.mb58.gz 698.45MB Kongsberg multibeam vendor format
0070_20121010_165944_FK_EM710.all.mb58.gz 1.11MB Kongsberg multibeam vendor format
0071_20121010_171849_FK_EM710.all.mb58.gz 704.09MB Kongsberg multibeam vendor format
0072_20121010_174849_FK_EM710.all.mb58.gz 648.88MB Kongsberg multibeam vendor format
0073_20121010_181849_FK_EM710.all.mb58.gz 592.38MB Kongsberg multibeam vendor format
0074_20121010_184849_FK_EM710.all.mb58.gz 454.40MB Kongsberg multibeam vendor format
0075_20121010_200830_FK_EM710.all.mb58.gz 482.27MB Kongsberg multibeam vendor format
0076_20121010_203825_FK_EM710.all.mb58.gz 484.15MB Kongsberg multibeam vendor format
0077_20121010_210825_FK_EM710.all.mb58.gz 483.60MB Kongsberg multibeam vendor format
0078_20121010_213825_FK_EM710.all.mb58.gz 483.27MB Kongsberg multibeam vendor format
0079_20121010_220825_FK_EM710.all.mb58.gz 483.37MB Kongsberg multibeam vendor format
0080_20121010_223825_FK_EM710.all.mb58.gz 462.34MB Kongsberg multibeam vendor format
0081_20121010_230825_FK_EM710.all.mb58.gz 409.10MB Kongsberg multibeam vendor format
0082_20121010_233825_FK_EM710.all.mb58.gz 358.89MB Kongsberg multibeam vendor format
0083_20121011_000825_FK_EM710.all.mb58.gz 130.12MB Kongsberg multibeam vendor format
0084_20121011_002015_FK_EM710.all.mb58.gz 39.89MB Kongsberg multibeam vendor format
0085_20121011_002357_FK_EM710.all.mb58.gz 34.83MB Kongsberg multibeam vendor format
0086_20121011_002720_FK_EM710.all.mb58.gz 36.07MB Kongsberg multibeam vendor format
0087_20121011_003041_FK_EM710.all.mb58.gz 41.33MB Kongsberg multibeam vendor format
0088_20121011_003436_FK_EM710.all.mb58.gz 45.81MB Kongsberg multibeam vendor format
0089_20121011_003850_FK_EM710.all.mb58.gz 33.31MB Kongsberg multibeam vendor format
0090_20121011_004203_FK_EM710.all.mb58.gz 39.80MB Kongsberg multibeam vendor format
0091_20121011_004544_FK_EM710.all.mb58.gz 81.85MB Kongsberg multibeam vendor format
0092_20121011_005331_FK_EM710.all.mb58.gz 78.99MB Kongsberg multibeam vendor format
0093_20121011_010056_FK_EM710.all.mb58.gz 51.49MB Kongsberg multibeam vendor format
0094_20121011_010541_FK_EM710.all.mb58.gz 305.54MB Kongsberg multibeam vendor format
0095_20121011_013541_FK_EM710.all.mb58.gz 222.93MB Kongsberg multibeam vendor format
0096_20121011_015934_FK_EM710.all.mb58.gz 49.17MB Kongsberg multibeam vendor format
0097_20121011_020508_FK_EM710.all.mb58.gz 44.82MB Kongsberg multibeam vendor format
0098_20121011_021025_FK_EM710.all.mb58.gz 262.71MB Kongsberg multibeam vendor format
0099_20121011_024025_FK_EM710.all.mb58.gz 269.98MB Kongsberg multibeam vendor format
0100_20121011_031025_FK_EM710.all.mb58.gz 193.42MB Kongsberg multibeam vendor format
0101_20121011_033038_FK_EM710.all.mb58.gz 284.22MB Kongsberg multibeam vendor format
0102_20121011_040038_FK_EM710.all.mb58.gz 249.00MB Kongsberg multibeam vendor format
0103_20121011_042608_FK_EM710.all.mb58.gz 294.12MB Kongsberg multibeam vendor format
0104_20121011_045608_FK_EM710.all.mb58.gz 296.33MB Kongsberg multibeam vendor format
0105_20121011_052608_FK_EM710.all.mb58.gz 315.52MB Kongsberg multibeam vendor format
0106_20121011_055608_FK_EM710.all.mb58.gz 315.26MB Kongsberg multibeam vendor format
0107_20121011_062608_FK_EM710.all.mb58.gz 324.28MB Kongsberg multibeam vendor format
0108_20121011_065608_FK_EM710.all.mb58.gz 340.99MB Kongsberg multibeam vendor format
0109_20121011_072608_FK_EM710.all.mb58.gz 359.80MB Kongsberg multibeam vendor format
0110_20121011_075608_FK_EM710.all.mb58.gz 384.77MB Kongsberg multibeam vendor format
0111_20121011_082609_FK_EM710.all.mb58.gz 383.33MB Kongsberg multibeam vendor format
0112_20121011_085608_FK_EM710.all.mb58.gz 307.05MB Kongsberg multibeam vendor format
0113_20121011_091953_FK_EM710.all.mb58.gz 3.35MB Kongsberg multibeam vendor format
0114_20121011_092008_FK_EM710.all.mb58.gz 409.17MB Kongsberg multibeam vendor format
0115_20121011_095008_FK_EM710.all.mb58.gz 408.41MB Kongsberg multibeam vendor format
0116_20121011_102008_FK_EM710.all.mb58.gz 401.23MB Kongsberg multibeam vendor format
0117_20121011_105009_FK_EM710.all.mb58.gz 395.28MB Kongsberg multibeam vendor format
0118_20121011_112009_FK_EM710.all.mb58.gz 410.20MB Kongsberg multibeam vendor format
0119_20121011_115008_FK_EM710.all.mb58.gz 431.96MB Kongsberg multibeam vendor format
0120_20121011_122009_FK_EM710.all.mb58.gz 463.50MB Kongsberg multibeam vendor format
0121_20121011_125008_FK_EM710.all.mb58.gz 105.67MB Kongsberg multibeam vendor format
0122_20121011_143737_FK_EM710.all.mb58.gz 459.98MB Kongsberg multibeam vendor format
0123_20121011_150737_FK_EM710.all.mb58.gz 532.66MB Kongsberg multibeam vendor format
0124_20121011_153737_FK_EM710.all.mb58.gz 593.64MB Kongsberg multibeam vendor format
0125_20121011_160737_FK_EM710.all.mb58.gz 617.90MB Kongsberg multibeam vendor format
0126_20121011_163737_FK_EM710.all.mb58.gz 681.58MB Kongsberg multibeam vendor format
0127_20121011_170737_FK_EM710.all.mb58.gz 695.33MB Kongsberg multibeam vendor format
0128_20121011_173737_FK_EM710.all.mb58.gz 406.93MB Kongsberg multibeam vendor format
0129_20121011_181941_FK_EM710.all.mb58.gz 691.50MB Kongsberg multibeam vendor format
0130_20121011_184942_FK_EM710.all.mb58.gz 704.49MB Kongsberg multibeam vendor format
0131_20121011_191942_FK_EM710.all.mb58.gz 652.76MB Kongsberg multibeam vendor format
0132_20121011_194942_FK_EM710.all.mb58.gz 558.13MB Kongsberg multibeam vendor format
0133_20121011_201942_FK_EM710.all.mb58.gz 465.28MB Kongsberg multibeam vendor format
0134_20121011_212112_FK_EM710.all.mb58.gz 63.07MB Kongsberg multibeam vendor format
0135_20121011_223444_FK_EM710.all.mb58.gz 48.7KB Kongsberg multibeam vendor format
0136_20121011_223445_FK_EM710.all.mb58.gz 294.01MB Kongsberg multibeam vendor format
0137_20121011_230445_FK_EM710.all.mb58.gz 417.26MB Kongsberg multibeam vendor format
0138_20121011_233445_FK_EM710.all.mb58.gz 421.27MB Kongsberg multibeam vendor format
0139_20121012_000445_FK_EM710.all.mb58.gz 285.09MB Kongsberg multibeam vendor format
0140_20121012_003558_FK_EM710.all.mb58.gz 382.91MB Kongsberg multibeam vendor format
0141_20121012_010558_FK_EM710.all.mb58.gz 344.89MB Kongsberg multibeam vendor format
0142_20121012_013558_FK_EM710.all.mb58.gz 317.69MB Kongsberg multibeam vendor format
0143_20121012_020558_FK_EM710.all.mb58.gz 297.53MB Kongsberg multibeam vendor format
0144_20121012_023559_FK_EM710.all.mb58.gz 277.15MB Kongsberg multibeam vendor format
0145_20121012_030559_FK_EM710.all.mb58.gz 265.02MB Kongsberg multibeam vendor format
0146_20121012_033558_FK_EM710.all.mb58.gz 266.32MB Kongsberg multibeam vendor format
0147_20121012_040558_FK_EM710.all.mb58.gz 280.05MB Kongsberg multibeam vendor format
0148_20121012_043559_FK_EM710.all.mb58.gz 317.42MB Kongsberg multibeam vendor format
0149_20121012_050559_FK_EM710.all.mb58.gz 348.56MB Kongsberg multibeam vendor format
0150_20121012_053559_FK_EM710.all.mb58.gz 349.25MB Kongsberg multibeam vendor format
0151_20121012_060559_FK_EM710.all.mb58.gz 368.18MB Kongsberg multibeam vendor format
0152_20121012_063559_FK_EM710.all.mb58.gz 436.48MB Kongsberg multibeam vendor format
0153_20121012_070559_FK_EM710.all.mb58.gz 456.83MB Kongsberg multibeam vendor format
0154_20121012_073559_FK_EM710.all.mb58.gz 456.53MB Kongsberg multibeam vendor format
0155_20121012_080559_FK_EM710.all.mb58.gz 418.90MB Kongsberg multibeam vendor format
0156_20121012_083559_FK_EM710.all.mb58.gz 368.03MB Kongsberg multibeam vendor format
0157_20121012_090559_FK_EM710.all.mb58.gz 350.83MB Kongsberg multibeam vendor format
0158_20121012_093559_FK_EM710.all.mb58.gz 371.80MB Kongsberg multibeam vendor format
0159_20121012_100559_FK_EM710.all.mb58.gz 392.46MB Kongsberg multibeam vendor format
0160_20121012_103559_FK_EM710.all.mb58.gz 403.05MB Kongsberg multibeam vendor format
0161_20121012_110559_FK_EM710.all.mb58.gz 408.73MB Kongsberg multibeam vendor format
0162_20121012_113559_FK_EM710.all.mb58.gz 414.73MB Kongsberg multibeam vendor format
0163_20121012_120559_FK_EM710.all.mb58.gz 419.51MB Kongsberg multibeam vendor format
0164_20121012_123559_FK_EM710.all.mb58.gz 288.35MB Kongsberg multibeam vendor format
0165_20121012_131851_FK_EM710.all.mb58.gz 463.61MB Kongsberg multibeam vendor format
0166_20121012_134851_FK_EM710.all.mb58.gz 567.90MB Kongsberg multibeam vendor format
0167_20121012_141851_FK_EM710.all.mb58.gz 680.71MB Kongsberg multibeam vendor format
0168_20121012_144851_FK_EM710.all.mb58.gz 185.61MB Kongsberg multibeam vendor format
0169_20121012_150500_FK_EM710.all.mb58.gz 698.45MB Kongsberg multibeam vendor format
0170_20121012_153500_FK_EM710.all.mb58.gz 689.53MB Kongsberg multibeam vendor format
0171_20121012_160500_FK_EM710.all.mb58.gz 689.68MB Kongsberg multibeam vendor format
0172_20121012_163500_FK_EM710.all.mb58.gz 688.38MB Kongsberg multibeam vendor format
0173_20121012_170500_FK_EM710.all.mb58.gz 688.88MB Kongsberg multibeam vendor format
0174_20121012_173501_FK_EM710.all.mb58.gz 688.16MB Kongsberg multibeam vendor format
0175_20121012_180501_FK_EM710.all.mb58.gz 691.84MB Kongsberg multibeam vendor format
0176_20121012_183501_FK_EM710.all.mb58.gz 702.93MB Kongsberg multibeam vendor format
0177_20121012_190501_FK_EM710.all.mb58.gz 635.15MB Kongsberg multibeam vendor format
0178_20121012_193501_FK_EM710.all.mb58.gz 532.21MB Kongsberg multibeam vendor format
0179_20121012_200501_FK_EM710.all.mb58.gz 456.44MB Kongsberg multibeam vendor format
0180_20121012_203501_FK_EM710.all.mb58.gz 455.30MB Kongsberg multibeam vendor format
0181_20121012_210501_FK_EM710.all.mb58.gz 456.91MB Kongsberg multibeam vendor format
0182_20121012_213501_FK_EM710.all.mb58.gz 462.61MB Kongsberg multibeam vendor format
0183_20121012_220501_FK_EM710.all.mb58.gz 463.80MB Kongsberg multibeam vendor format
0184_20121012_223501_FK_EM710.all.mb58.gz 436.02MB Kongsberg multibeam vendor format
0185_20121012_230501_FK_EM710.all.mb58.gz 342.09MB Kongsberg multibeam vendor format
0186_20121012_233501_FK_EM710.all.mb58.gz 285.91MB Kongsberg multibeam vendor format
0187_20121013_000501_FK_EM710.all.mb58.gz 269.33MB Kongsberg multibeam vendor format
0188_20121013_003501_FK_EM710.all.mb58.gz 269.63MB Kongsberg multibeam vendor format
0189_20121013_010501_FK_EM710.all.mb58.gz 220.08MB Kongsberg multibeam vendor format
0190_20121013_052310_FK_EM710.all.mb58.gz 303.18MB Kongsberg multibeam vendor format
0191_20121013_055311_FK_EM710.all.mb58.gz 304.92MB Kongsberg multibeam vendor format
0192_20121013_062311_FK_EM710.all.mb58.gz 300.44MB Kongsberg multibeam vendor format
0193_20121013_065311_FK_EM710.all.mb58.gz 301.88MB Kongsberg multibeam vendor format
0194_20121013_072311_FK_EM710.all.mb58.gz 306.33MB Kongsberg multibeam vendor format
0195_20121013_075311_FK_EM710.all.mb58.gz 297.40MB Kongsberg multibeam vendor format
0196_20121013_082311_FK_EM710.all.mb58.gz 289.69MB Kongsberg multibeam vendor format
0197_20121013_085312_FK_EM710.all.mb58.gz 276.63MB Kongsberg multibeam vendor format
0198_20121013_092312_FK_EM710.all.mb58.gz 43.16MB Kongsberg multibeam vendor format
0199_20121013_092758_FK_EM710.all.mb58.gz 263.76MB Kongsberg multibeam vendor format
0200_20121013_095758_FK_EM710.all.mb58.gz 268.20MB Kongsberg multibeam vendor format
0201_20121013_102758_FK_EM710.all.mb58.gz 281.53MB Kongsberg multibeam vendor format
0202_20121013_105758_FK_EM710.all.mb58.gz 299.51MB Kongsberg multibeam vendor format
0203_20121013_112758_FK_EM710.all.mb58.gz 318.24MB Kongsberg multibeam vendor format
0204_20121013_115758_FK_EM710.all.mb58.gz 344.50MB Kongsberg multibeam vendor format
0205_20121013_122758_FK_EM710.all.mb58.gz 382.91MB Kongsberg multibeam vendor format
0206_20121013_125758_FK_EM710.all.mb58.gz 274.49MB Kongsberg multibeam vendor format
0207_20121013_131730_FK_EM710.all.mb58.gz 118.61MB Kongsberg multibeam vendor format
0208_20121013_132600_FK_EM710.all.mb58.gz 40.0KB Kongsberg multibeam vendor format
0209_20121013_134648_FK_EM710.all.mb58.gz 480.32MB Kongsberg multibeam vendor format
0210_20121013_141648_FK_EM710.all.mb58.gz 576.72MB Kongsberg multibeam vendor format
0211_20121013_144648_FK_EM710.all.mb58.gz 690.29MB Kongsberg multibeam vendor format
0212_20121013_151648_FK_EM710.all.mb58.gz 699.94MB Kongsberg multibeam vendor format
0213_20121013_154648_FK_EM710.all.mb58.gz 690.36MB Kongsberg multibeam vendor format
0214_20121013_161648_FK_EM710.all.mb58.gz 696.79MB Kongsberg multibeam vendor format
0215_20121013_164648_FK_EM710.all.mb58.gz 657.10MB Kongsberg multibeam vendor format
0216_20121013_171649_FK_EM710.all.mb58.gz 627.37MB Kongsberg multibeam vendor format
0217_20121013_174649_FK_EM710.all.mb58.gz 664.80MB Kongsberg multibeam vendor format
0218_20121013_181649_FK_EM710.all.mb58.gz 696.67MB Kongsberg multibeam vendor format
0219_20121013_184649_FK_EM710.all.mb58.gz 563.67MB Kongsberg multibeam vendor format
0220_20121013_195708_FK_EM710.all.mb58.gz 503.13MB Kongsberg multibeam vendor format
0221_20121013_201854_FK_EM710.all.mb58.gz 109.53MB Kongsberg multibeam vendor format
0222_20121013_202334_FK_EM710.all.mb58.gz 55.32MB Kongsberg multibeam vendor format
0223_20121013_202600_FK_EM710.all.mb58.gz 98.36MB Kongsberg multibeam vendor format
0224_20121013_203012_FK_EM710.all.mb58.gz 68.46MB Kongsberg multibeam vendor format
0225_20121013_203306_FK_EM710.all.mb58.gz 102.20MB Kongsberg multibeam vendor format
0226_20121013_203726_FK_EM710.all.mb58.gz 1.46MB Kongsberg multibeam vendor format
0227_20121013_203730_FK_EM710.all.mb58.gz 110.96MB Kongsberg multibeam vendor format
0228_20121013_204225_FK_EM710.all.mb58.gz 2.73MB Kongsberg multibeam vendor format
0229_20121013_204232_FK_EM710.all.mb58.gz 89.99MB Kongsberg multibeam vendor format
0230_20121013_204621_FK_EM710.all.mb58.gz 65.55MB Kongsberg multibeam vendor format
0231_20121013_204910_FK_EM710.all.mb58.gz 93.07MB Kongsberg multibeam vendor format
0232_20121013_205308_FK_EM710.all.mb58.gz 61.90MB Kongsberg multibeam vendor format
0233_20121013_205549_FK_EM710.all.mb58.gz 102.27MB Kongsberg multibeam vendor format
0234_20121013_210010_FK_EM710.all.mb58.gz 59.06MB Kongsberg multibeam vendor format
0235_20121013_210240_FK_EM710.all.mb58.gz 21.98MB Kongsberg multibeam vendor format
0236_20121013_210336_FK_EM710.all.mb58.gz 109.35MB Kongsberg multibeam vendor format
0237_20121013_210814_FK_EM710.all.mb58.gz 66.46MB Kongsberg multibeam vendor format
0238_20121013_211107_FK_EM710.all.mb58.gz 99.87MB Kongsberg multibeam vendor format
0239_20121013_211522_FK_EM710.all.mb58.gz 69.31MB Kongsberg multibeam vendor format
0240_20121013_211818_FK_EM710.all.mb58.gz 104.71MB Kongsberg multibeam vendor format
0241_20121013_212245_FK_EM710.all.mb58.gz 55.38MB Kongsberg multibeam vendor format
0242_20121013_212512_FK_EM710.all.mb58.gz 101.57MB Kongsberg multibeam vendor format
0243_20121013_212931_FK_EM710.all.mb58.gz 62.46MB Kongsberg multibeam vendor format
0244_20121013_213211_FK_EM710.all.mb58.gz 101.55MB Kongsberg multibeam vendor format
0245_20121013_213630_FK_EM710.all.mb58.gz 65.98MB Kongsberg multibeam vendor format
0246_20121013_213925_FK_EM710.all.mb58.gz 102.37MB Kongsberg multibeam vendor format
0247_20121013_214346_FK_EM710.all.mb58.gz 53.66MB Kongsberg multibeam vendor format
0248_20121013_214603_FK_EM710.all.mb58.gz 112.50MB Kongsberg multibeam vendor format
0249_20121013_215050_FK_EM710.all.mb58.gz 60.82MB Kongsberg multibeam vendor format
0250_20121013_215331_FK_EM710.all.mb58.gz 98.72MB Kongsberg multibeam vendor format
0251_20121013_215743_FK_EM710.all.mb58.gz 67.98MB Kongsberg multibeam vendor format
0252_20121013_220036_FK_EM710.all.mb58.gz 108.32MB Kongsberg multibeam vendor format
0253_20121013_220513_FK_EM710.all.mb58.gz 87.44MB Kongsberg multibeam vendor format
0254_20121013_220904_FK_EM710.all.mb58.gz 89.71MB Kongsberg multibeam vendor format
0255_20121013_221253_FK_EM710.all.mb58.gz 200.9KB Kongsberg multibeam vendor format
0256_20121013_221253_FK_EM710.all.mb58.gz 72.55MB Kongsberg multibeam vendor format
0257_20121013_221559_FK_EM710.all.mb58.gz 98.08MB Kongsberg multibeam vendor format
0258_20121013_222009_FK_EM710.all.mb58.gz 76.79MB Kongsberg multibeam vendor format
0259_20121013_222328_FK_EM710.all.mb58.gz 90.48MB Kongsberg multibeam vendor format
0260_20121013_222719_FK_EM710.all.mb58.gz 108.84MB Kongsberg multibeam vendor format
0261_20121013_223156_FK_EM710.all.mb58.gz 92.79MB Kongsberg multibeam vendor format
0262_20121013_223552_FK_EM710.all.mb58.gz 573.66MB Kongsberg multibeam vendor format
0263_20121013_230104_FK_EM710.all.mb58.gz 92.53MB Kongsberg multibeam vendor format
0264_20121013_230521_FK_EM710.all.mb58.gz 332.75MB Kongsberg multibeam vendor format
0265_20121013_232102_FK_EM710.all.mb58.gz 79.53MB Kongsberg multibeam vendor format
0266_20121013_232455_FK_EM710.all.mb58.gz 94.20MB Kongsberg multibeam vendor format
0267_20121013_232914_FK_EM710.all.mb58.gz 85.82MB Kongsberg multibeam vendor format
0268_20121013_233321_FK_EM710.all.mb58.gz 105.92MB Kongsberg multibeam vendor format
0269_20121013_233815_FK_EM710.all.mb58.gz 75.80MB Kongsberg multibeam vendor format
0270_20121013_234158_FK_EM710.all.mb58.gz 75.47MB Kongsberg multibeam vendor format
0271_20121013_234524_FK_EM710.all.mb58.gz 85.43MB Kongsberg multibeam vendor format
0272_20121013_234927_FK_EM710.all.mb58.gz 88.73MB Kongsberg multibeam vendor format
0273_20121013_235333_FK_EM710.all.mb58.gz 68.87MB Kongsberg multibeam vendor format
0274_20121013_235655_FK_EM710.all.mb58.gz 83.00MB Kongsberg multibeam vendor format
0275_20121014_000043_FK_EM710.all.mb58.gz 85.65MB Kongsberg multibeam vendor format
0276_20121014_000444_FK_EM710.all.mb58.gz 89.66MB Kongsberg multibeam vendor format
0277_20121014_000852_FK_EM710.all.mb58.gz 70.10MB Kongsberg multibeam vendor format
0278_20121014_001219_FK_EM710.all.mb58.gz 76.61MB Kongsberg multibeam vendor format
0279_20121014_001551_FK_EM710.all.mb58.gz 60.91MB Kongsberg multibeam vendor format
0280_20121014_001848_FK_EM710.all.mb58.gz 104.26MB Kongsberg multibeam vendor format
0281_20121014_002336_FK_EM710.all.mb58.gz 71.81MB Kongsberg multibeam vendor format
0282_20121014_002712_FK_EM710.all.mb58.gz 82.09MB Kongsberg multibeam vendor format
0283_20121014_003059_FK_EM710.all.mb58.gz 72.18MB Kongsberg multibeam vendor format
0284_20121014_003428_FK_EM710.all.mb58.gz 98.26MB Kongsberg multibeam vendor format
0285_20121014_003859_FK_EM710.all.mb58.gz 494.43MB Kongsberg multibeam vendor format
0286_20121014_010225_FK_EM710.all.mb58.gz 105.13MB Kongsberg multibeam vendor format
0287_20121014_010721_FK_EM710.all.mb58.gz 179.23MB Kongsberg multibeam vendor format
0288_20121014_011749_FK_EM710.all.mb58.gz 93.58MB Kongsberg multibeam vendor format
0289_20121014_012214_FK_EM710.all.mb58.gz 99.16MB Kongsberg multibeam vendor format
0290_20121014_012714_FK_EM710.all.mb58.gz 85.55MB Kongsberg multibeam vendor format
0291_20121014_013116_FK_EM710.all.mb58.gz 99.94MB Kongsberg multibeam vendor format
0292_20121014_013607_FK_EM710.all.mb58.gz 99.77MB Kongsberg multibeam vendor format
0293_20121014_014047_FK_EM710.all.mb58.gz 115.16MB Kongsberg multibeam vendor format
0294_20121014_014639_FK_EM710.all.mb58.gz 623.34MB Kongsberg multibeam vendor format
0295_20121014_021639_FK_EM710.all.mb58.gz 626.53MB Kongsberg multibeam vendor format
0296_20121014_024639_FK_EM710.all.mb58.gz 586.78MB Kongsberg multibeam vendor format
0297_20121014_031639_FK_EM710.all.mb58.gz 593.17MB Kongsberg multibeam vendor format
0298_20121014_034639_FK_EM710.all.mb58.gz 519.43MB Kongsberg multibeam vendor format
0299_20121014_041639_FK_EM710.all.mb58.gz 454.70MB Kongsberg multibeam vendor format
0300_20121014_044639_FK_EM710.all.mb58.gz 395.52MB Kongsberg multibeam vendor format
0301_20121014_051639_FK_EM710.all.mb58.gz 344.97MB Kongsberg multibeam vendor format
0302_20121014_054639_FK_EM710.all.mb58.gz 312.62MB Kongsberg multibeam vendor format
0303_20121014_061639_FK_EM710.all.mb58.gz 291.94MB Kongsberg multibeam vendor format
0304_20121014_064639_FK_EM710.all.mb58.gz 286.45MB Kongsberg multibeam vendor format
0305_20121014_071639_FK_EM710.all.mb58.gz 279.85MB Kongsberg multibeam vendor format
0306_20121014_074639_FK_EM710.all.mb58.gz 276.05MB Kongsberg multibeam vendor format
0307_20121014_081639_FK_EM710.all.mb58.gz 275.23MB Kongsberg multibeam vendor format
0308_20121014_084640_FK_EM710.all.mb58.gz 279.95MB Kongsberg multibeam vendor format
0309_20121014_091639_FK_EM710.all.mb58.gz 278.84MB Kongsberg multibeam vendor format
0310_20121014_094640_FK_EM710.all.mb58.gz 300.26MB Kongsberg multibeam vendor format
0311_20121014_101640_FK_EM710.all.mb58.gz 351.31MB Kongsberg multibeam vendor format
0312_20121014_104640_FK_EM710.all.mb58.gz 225.42MB Kongsberg multibeam vendor format
0313_20121014_110328_FK_EM710.all.mb58.gz 429.71MB Kongsberg multibeam vendor format
0314_20121014_113328_FK_EM710.all.mb58.gz 430.22MB Kongsberg multibeam vendor format
0315_20121014_120328_FK_EM710.all.mb58.gz 440.73MB Kongsberg multibeam vendor format
0316_20121014_123328_FK_EM710.all.mb58.gz 431.63MB Kongsberg multibeam vendor format
0317_20121014_130328_FK_EM710.all.mb58.gz 422.59MB Kongsberg multibeam vendor format
0318_20121014_133328_FK_EM710.all.mb58.gz 426.98MB Kongsberg multibeam vendor format
0319_20121014_140328_FK_EM710.all.mb58.gz 257.79MB Kongsberg multibeam vendor format
0320_20121014_151120_FK_EM710.all.mb58.gz 462.53MB Kongsberg multibeam vendor format
0321_20121014_154120_FK_EM710.all.mb58.gz 559.25MB Kongsberg multibeam vendor format
0322_20121014_161120_FK_EM710.all.mb58.gz 544.29MB Kongsberg multibeam vendor format
0323_20121014_164643_FK_EM710.all.mb58.gz 20.63MB Kongsberg multibeam vendor format
0324_20121014_164743_FK_EM710.all.mb58.gz 694.19MB Kongsberg multibeam vendor format
0325_20121014_171739_FK_EM710.all.mb58.gz 690.49MB Kongsberg multibeam vendor format
0326_20121014_174739_FK_EM710.all.mb58.gz 692.18MB Kongsberg multibeam vendor format
0327_20121014_181739_FK_EM710.all.mb58.gz 696.45MB Kongsberg multibeam vendor format
0328_20121014_184740_FK_EM710.all.mb58.gz 697.33MB Kongsberg multibeam vendor format
0329_20121014_191740_FK_EM710.all.mb58.gz 694.35MB Kongsberg multibeam vendor format
0330_20121014_194740_FK_EM710.all.mb58.gz 693.74MB Kongsberg multibeam vendor format
0331_20121014_201740_FK_EM710.all.mb58.gz 595.46MB Kongsberg multibeam vendor format
0332_20121014_204740_FK_EM710.all.mb58.gz 515.96MB Kongsberg multibeam vendor format
0333_20121014_211740_FK_EM710.all.mb58.gz 448.49MB Kongsberg multibeam vendor format
0334_20121014_214740_FK_EM710.all.mb58.gz 419.64MB Kongsberg multibeam vendor format
0335_20121014_221740_FK_EM710.all.mb58.gz 374.81MB Kongsberg multibeam vendor format
0336_20121014_224740_FK_EM710.all.mb58.gz 328.48MB Kongsberg multibeam vendor format
0337_20121014_231740_FK_EM710.all.mb58.gz 259.54MB Kongsberg multibeam vendor format
0338_20121014_234442_FK_EM710.all.mb58.gz 26.5KB Kongsberg multibeam vendor format
0339_20121015_000754_FK_EM710.all.mb58.gz 206.15MB Kongsberg multibeam vendor format
0340_20121015_002955_FK_EM710.all.mb58.gz 149.18MB Kongsberg multibeam vendor format
0341_20121015_004553_FK_EM710.all.mb58.gz 60.4KB Kongsberg multibeam vendor format
0342_20121015_004553_FK_EM710.all.mb58.gz 62.3KB Kongsberg multibeam vendor format
0343_20121015_004554_FK_EM710.all.mb58.gz 281.22MB Kongsberg multibeam vendor format
0344_20121015_011554_FK_EM710.all.mb58.gz 278.62MB Kongsberg multibeam vendor format
0345_20121015_014554_FK_EM710.all.mb58.gz 218.03MB Kongsberg multibeam vendor format
0346_20121015_020925_FK_EM710.all.mb58.gz 150.07MB Kongsberg multibeam vendor format
0348_20121015_022537_FK_EM710.all.mb58.gz 144.06MB Kongsberg multibeam vendor format
0349_20121015_024108_FK_EM710.all.mb58.gz 70.36MB Kongsberg multibeam vendor format
0350_20121015_024849_FK_EM710.all.mb58.gz 255.58MB Kongsberg multibeam vendor format
0351_20121015_031614_FK_EM710.all.mb58.gz 60.45MB Kongsberg multibeam vendor format
0352_20121015_032252_FK_EM710.all.mb58.gz 279.67MB Kongsberg multibeam vendor format
0353_20121015_035253_FK_EM710.all.mb58.gz 1.32MB Kongsberg multibeam vendor format
0354_20121015_035301_FK_EM710.all.mb58.gz 54.70MB Kongsberg multibeam vendor format
0355_20121015_035858_FK_EM710.all.mb58.gz 267.26MB Kongsberg multibeam vendor format
0356_20121015_042725_FK_EM710.all.mb58.gz 37.57MB Kongsberg multibeam vendor format
0357_20121015_043132_FK_EM710.all.mb58.gz 269.55MB Kongsberg multibeam vendor format
0358_20121015_050012_FK_EM710.all.mb58.gz 234.1KB Kongsberg multibeam vendor format
0359_20121015_050013_FK_EM710.all.mb58.gz 26.49MB Kongsberg multibeam vendor format
0360_20121015_050305_FK_EM710.all.mb58.gz 255.47MB Kongsberg multibeam vendor format
0361_20121015_053009_FK_EM710.all.mb58.gz 0.63MB Kongsberg multibeam vendor format
0362_20121015_053013_FK_EM710.all.mb58.gz 33.85MB Kongsberg multibeam vendor format
0363_20121015_053354_FK_EM710.all.mb58.gz 258.38MB Kongsberg multibeam vendor format
0364_20121015_060115_FK_EM710.all.mb58.gz 27.47MB Kongsberg multibeam vendor format
0365_20121015_060412_FK_EM710.all.mb58.gz 250.10MB Kongsberg multibeam vendor format
0366_20121015_063032_FK_EM710.all.mb58.gz 28.73MB Kongsberg multibeam vendor format
0367_20121015_063339_FK_EM710.all.mb58.gz 263.68MB Kongsberg multibeam vendor format
0368_20121015_070124_FK_EM710.all.mb58.gz 32.03MB Kongsberg multibeam vendor format
0369_20121015_070448_FK_EM710.all.mb58.gz 249.94MB Kongsberg multibeam vendor format
0370_20121015_073055_FK_EM710.all.mb58.gz 24.15MB Kongsberg multibeam vendor format
0371_20121015_073331_FK_EM710.all.mb58.gz 271.50MB Kongsberg multibeam vendor format
0372_20121015_080152_FK_EM710.all.mb58.gz 30.08MB Kongsberg multibeam vendor format
0373_20121015_080503_FK_EM710.all.mb58.gz 252.02MB Kongsberg multibeam vendor format
0374_20121015_083109_FK_EM710.all.mb58.gz 26.17MB Kongsberg multibeam vendor format
0375_20121015_083356_FK_EM710.all.mb58.gz 267.64MB Kongsberg multibeam vendor format
0376_20121015_090135_FK_EM710.all.mb58.gz 45.21MB Kongsberg multibeam vendor format
0377_20121015_090620_FK_EM710.all.mb58.gz 244.11MB Kongsberg multibeam vendor format
0378_20121015_093119_FK_EM710.all.mb58.gz 36.34MB Kongsberg multibeam vendor format
0379_20121015_093509_FK_EM710.all.mb58.gz 265.76MB Kongsberg multibeam vendor format
0380_20121015_100214_FK_EM710.all.mb58.gz 38.27MB Kongsberg multibeam vendor format
0381_20121015_100611_FK_EM710.all.mb58.gz 171.1KB Kongsberg multibeam vendor format
0382_20121015_100612_FK_EM710.all.mb58.gz 257.70MB Kongsberg multibeam vendor format
0383_20121015_103216_FK_EM710.all.mb58.gz 28.15MB Kongsberg multibeam vendor format
0384_20121015_103513_FK_EM710.all.mb58.gz 282.61MB Kongsberg multibeam vendor format
0385_20121015_110345_FK_EM710.all.mb58.gz 318.47MB Kongsberg multibeam vendor format
0386_20121015_113345_FK_EM710.all.mb58.gz 367.50MB Kongsberg multibeam vendor format
0387_20121015_120345_FK_EM710.all.mb58.gz 423.40MB Kongsberg multibeam vendor format
0388_20121015_123345_FK_EM710.all.mb58.gz 416.24MB Kongsberg multibeam vendor format
0389_20121015_130345_FK_EM710.all.mb58.gz 276.29MB Kongsberg multibeam vendor format
0390_20121015_160017_FK_EM710.all.mb58.gz 118.82MB Kongsberg multibeam vendor format
0391_20121015_160901_FK_EM710.all.mb58.gz 59.67MB Kongsberg multibeam vendor format
0392_20121015_161308_FK_EM710.all.mb58.gz 409.90MB Kongsberg multibeam vendor format
0393_20121015_164308_FK_EM710.all.mb58.gz 356.44MB Kongsberg multibeam vendor format
0394_20121015_171308_FK_EM710.all.mb58.gz 312.57MB Kongsberg multibeam vendor format
0395_20121015_174308_FK_EM710.all.mb58.gz 102.48MB Kongsberg multibeam vendor format
0396_20121015_230424_FK_EM710.all.mb58.gz 288.98MB Kongsberg multibeam vendor format
0397_20121015_233424_FK_EM710.all.mb58.gz 214.51MB Kongsberg multibeam vendor format
0398_20121015_235556_FK_EM710.all.mb58.gz 26.64MB Kongsberg multibeam vendor format
0399_20121015_235842_FK_EM710.all.mb58.gz 289.71MB Kongsberg multibeam vendor format
0400_20121016_002739_FK_EM710.all.mb58.gz 28.06MB Kongsberg multibeam vendor format
0401_20121016_003033_FK_EM710.all.mb58.gz 296.82MB Kongsberg multibeam vendor format
0402_20121016_010011_FK_EM710.all.mb58.gz 52.04MB Kongsberg multibeam vendor format
0403_20121016_010529_FK_EM710.all.mb58.gz 284.72MB Kongsberg multibeam vendor format
0404_20121016_013343_FK_EM710.all.mb58.gz 45.30MB Kongsberg multibeam vendor format
0405_20121016_013821_FK_EM710.all.mb58.gz 293.10MB Kongsberg multibeam vendor format
0406_20121016_020723_FK_EM710.all.mb58.gz 42.79MB Kongsberg multibeam vendor format
0407_20121016_021141_FK_EM710.all.mb58.gz 284.09MB Kongsberg multibeam vendor format
0408_20121016_023936_FK_EM710.all.mb58.gz 52.68MB Kongsberg multibeam vendor format
0409_20121016_024454_FK_EM710.all.mb58.gz 282.54MB Kongsberg multibeam vendor format
0410_20121016_031237_FK_EM710.all.mb58.gz 35.07MB Kongsberg multibeam vendor format
0411_20121016_031608_FK_EM710.all.mb58.gz 286.87MB Kongsberg multibeam vendor format
0412_20121016_034408_FK_EM710.all.mb58.gz 306.44MB Kongsberg multibeam vendor format
0413_20121016_041408_FK_EM710.all.mb58.gz 32.61MB Kongsberg multibeam vendor format
0414_20121016_041718_FK_EM710.all.mb58.gz 38.22MB Kongsberg multibeam vendor format
0415_20121016_042105_FK_EM710.all.mb58.gz 270.32MB Kongsberg multibeam vendor format
0416_20121016_044717_FK_EM710.all.mb58.gz 40.97MB Kongsberg multibeam vendor format
0417_20121016_045123_FK_EM710.all.mb58.gz 282.87MB Kongsberg multibeam vendor format
0418_20121016_051844_FK_EM710.all.mb58.gz 69.31MB Kongsberg multibeam vendor format
0419_20121016_052532_FK_EM710.all.mb58.gz 153.54MB Kongsberg multibeam vendor format
0420_20121016_054023_FK_EM710.all.mb58.gz 156.60MB Kongsberg multibeam vendor format
0421_20121016_055607_FK_EM710.all.mb58.gz 274.86MB Kongsberg multibeam vendor format
0422_20121016_062607_FK_EM710.all.mb58.gz 247.21MB Kongsberg multibeam vendor format
0423_20121016_065607_FK_EM710.all.mb58.gz 216.46MB Kongsberg multibeam vendor format
0424_20121016_072607_FK_EM710.all.mb58.gz 47.92MB Kongsberg multibeam vendor format
0425_20121016_075607_FK_EM710.all.mb58.gz 12.30MB Kongsberg multibeam vendor format
0426_20121016_082607_FK_EM710.all.mb58.gz 12.30MB Kongsberg multibeam vendor format
0427_20121016_085607_FK_EM710.all.mb58.gz 12.30MB Kongsberg multibeam vendor format
0428_20121016_092607_FK_EM710.all.mb58.gz 12.30MB Kongsberg multibeam vendor format
0429_20121016_095607_FK_EM710.all.mb58.gz 12.30MB Kongsberg multibeam vendor format
0430_20121016_102608_FK_EM710.all.mb58.gz 12.30MB Kongsberg multibeam vendor format
0431_20121016_105608_FK_EM710.all.mb58.gz 12.30MB Kongsberg multibeam vendor format
0432_20121016_112608_FK_EM710.all.mb58.gz 12.30MB Kongsberg multibeam vendor format
0433_20121016_115608_FK_EM710.all.mb58.gz 12.30MB Kongsberg multibeam vendor format
0434_20121016_122608_FK_EM710.all.mb58.gz 5.60MB Kongsberg multibeam vendor format
0435_20121016_125036_FK_EM710.all.mb58.gz 363.2KB Kongsberg multibeam vendor format
0435_20121016_154147_FK_EM710.all.mb58.gz 25.66MB Kongsberg multibeam vendor format
0436_20121016_161147_FK_EM710.all.mb58.gz 29.68MB Kongsberg multibeam vendor format
0437_20121016_164148_FK_EM710.all.mb58.gz 31.83MB Kongsberg multibeam vendor format
0438_20121016_171147_FK_EM710.all.mb58.gz 46.49MB Kongsberg multibeam vendor format
0439_20121016_174147_FK_EM710.all.mb58.gz 110.12MB Kongsberg multibeam vendor format
0440_20121016_181147_FK_EM710.all.mb58.gz 213.74MB Kongsberg multibeam vendor format
0441_20121016_184146_FK_EM710.all.mb58.gz 268.46MB Kongsberg multibeam vendor format
0442_20121016_191146_FK_EM710.all.mb58.gz 185.85MB Kongsberg multibeam vendor format
0443_20121017_134717_FK_EM710.all.mb58.gz 0.95MB Kongsberg multibeam vendor format
0444_20121017_155609_FK_EM710.all.mb58.gz 467.41MB Kongsberg multibeam vendor format
0445_20121017_162609_FK_EM710.all.mb58.gz 431.91MB Kongsberg multibeam vendor format
0446_20121017_165609_FK_EM710.all.mb58.gz 385.50MB Kongsberg multibeam vendor format
0447_20121017_172609_FK_EM710.all.mb58.gz 348.15MB Kongsberg multibeam vendor format
0448_20121017_175609_FK_EM710.all.mb58.gz 321.99MB Kongsberg multibeam vendor format
0449_20121017_182609_FK_EM710.all.mb58.gz 302.23MB Kongsberg multibeam vendor format
0450_20121017_185609_FK_EM710.all.mb58.gz 287.99MB Kongsberg multibeam vendor format
0451_20121017_192610_FK_EM710.all.mb58.gz 275.93MB Kongsberg multibeam vendor format
0452_20121017_195610_FK_EM710.all.mb58.gz 272.29MB Kongsberg multibeam vendor format
0453_20121017_202610_FK_EM710.all.mb58.gz 238.88MB Kongsberg multibeam vendor format
0454_20121017_235506_FK_EM710.all.mb58.gz 303.6KB Kongsberg multibeam vendor format
0455_20121017_235511_FK_EM710.all.mb58.gz 264.27MB Kongsberg multibeam vendor format
0456_20121018_002511_FK_EM710.all.mb58.gz 60.47MB Kongsberg multibeam vendor format
0457_20121018_003201_FK_EM710.all.mb58.gz 66.23MB Kongsberg multibeam vendor format
0458_20121018_004109_FK_EM710.all.mb58.gz 1.98MB Kongsberg multibeam vendor format
0459_20121018_004947_FK_EM710.all.mb58.gz 29.3KB Kongsberg multibeam vendor format
0460_20121018_010144_FK_EM710.all.mb58.gz 1.32MB Kongsberg multibeam vendor format
0461_20121018_010419_FK_EM710.all.mb58.gz 106.56MB Kongsberg multibeam vendor format
0462_20121018_011533_FK_EM710.all.mb58.gz 278.61MB Kongsberg multibeam vendor format
0463_20121018_014533_FK_EM710.all.mb58.gz 7.14MB Kongsberg multibeam vendor format
0464_20121018_014621_FK_EM710.all.mb58.gz 47.95MB Kongsberg multibeam vendor format
0465_20121018_015149_FK_EM710.all.mb58.gz 239.45MB Kongsberg multibeam vendor format
0466_20121018_021747_FK_EM710.all.mb58.gz 117.2KB Kongsberg multibeam vendor format
0467_20121018_021748_FK_EM710.all.mb58.gz 173.8KB Kongsberg multibeam vendor format
0468_20121018_021749_FK_EM710.all.mb58.gz 51.28MB Kongsberg multibeam vendor format
0469_20121018_022318_FK_EM710.all.mb58.gz 163.30MB Kongsberg multibeam vendor format
0470_20121018_024046_FK_EM710.all.mb58.gz 70.88MB Kongsberg multibeam vendor format
0471_20121018_024845_FK_EM710.all.mb58.gz 149.13MB Kongsberg multibeam vendor format
0472_20121018_030446_FK_EM710.all.mb58.gz 49.57MB Kongsberg multibeam vendor format
0473_20121018_031005_FK_EM710.all.mb58.gz 38.98MB Kongsberg multibeam vendor format
0474_20121018_031411_FK_EM710.all.mb58.gz 116.19MB Kongsberg multibeam vendor format
0475_20121018_032639_FK_EM710.all.mb58.gz 154.93MB Kongsberg multibeam vendor format
0476_20121018_034322_FK_EM710.all.mb58.gz 46.07MB Kongsberg multibeam vendor format
0477_20121018_034836_FK_EM710.all.mb58.gz 111.94MB Kongsberg multibeam vendor format
0478_20121018_040034_FK_EM710.all.mb58.gz 42.42MB Kongsberg multibeam vendor format
0479_20121018_040510_FK_EM710.all.mb58.gz 21.80MB Kongsberg multibeam vendor format
0480_20121018_040729_FK_EM710.all.mb58.gz 41.02MB Kongsberg multibeam vendor format
0481_20121018_041154_FK_EM710.all.mb58.gz 13.39MB Kongsberg multibeam vendor format
0482_20121018_041319_FK_EM710.all.mb58.gz 115.18MB Kongsberg multibeam vendor format
0483_20121018_042552_FK_EM710.all.mb58.gz 94.10MB Kongsberg multibeam vendor format
0484_20121018_043558_FK_EM710.all.mb58.gz 39.96MB Kongsberg multibeam vendor format
0485_20121018_044020_FK_EM710.all.mb58.gz 270.09MB Kongsberg multibeam vendor format
0486_20121018_051020_FK_EM710.all.mb58.gz 2.28MB Kongsberg multibeam vendor format
0487_20121018_051036_FK_EM710.all.mb58.gz 25.58MB Kongsberg multibeam vendor format
0488_20121018_051336_FK_EM710.all.mb58.gz 109.96MB Kongsberg multibeam vendor format
0489_20121018_052602_FK_EM710.all.mb58.gz 25.04MB Kongsberg multibeam vendor format
0490_20121018_052854_FK_EM710.all.mb58.gz 134.99MB Kongsberg multibeam vendor format
0491_20121018_054413_FK_EM710.all.mb58.gz 24.97MB Kongsberg multibeam vendor format
0492_20121018_054710_FK_EM710.all.mb58.gz 187.05MB Kongsberg multibeam vendor format
0493_20121018_060808_FK_EM710.all.mb58.gz 29.18MB Kongsberg multibeam vendor format
0494_20121018_061125_FK_EM710.all.mb58.gz 211.56MB Kongsberg multibeam vendor format
0495_20121018_063520_FK_EM710.all.mb58.gz 24.10MB Kongsberg multibeam vendor format
0496_20121018_063812_FK_EM710.all.mb58.gz 230.67MB Kongsberg multibeam vendor format
0497_20121018_070406_FK_EM710.all.mb58.gz 32.36MB Kongsberg multibeam vendor format
0498_20121018_070743_FK_EM710.all.mb58.gz 258.78MB Kongsberg multibeam vendor format
0499_20121018_073701_FK_EM710.all.mb58.gz 19.66MB Kongsberg multibeam vendor format
0500_20121018_073922_FK_EM710.all.mb58.gz 66.99MB Kongsberg multibeam vendor format
0501_20121018_074706_FK_EM710.all.mb58.gz 40.41MB Kongsberg multibeam vendor format
0502_20121018_075141_FK_EM710.all.mb58.gz 20.99MB Kongsberg multibeam vendor format
0503_20121018_075407_FK_EM710.all.mb58.gz 46.69MB Kongsberg multibeam vendor format
0504_20121018_075925_FK_EM710.all.mb58.gz 23.95MB Kongsberg multibeam vendor format
0505_20121018_080213_FK_EM710.all.mb58.gz 41.87MB Kongsberg multibeam vendor format
0506_20121018_080655_FK_EM710.all.mb58.gz 21.66MB Kongsberg multibeam vendor format
0507_20121018_080926_FK_EM710.all.mb58.gz 50.23MB Kongsberg multibeam vendor format
0508_20121018_081506_FK_EM710.all.mb58.gz 27.70MB Kongsberg multibeam vendor format
0509_20121018_081818_FK_EM710.all.mb58.gz 44.19MB Kongsberg multibeam vendor format
0510_20121018_082315_FK_EM710.all.mb58.gz 22.45MB Kongsberg multibeam vendor format
0511_20121018_082549_FK_EM710.all.mb58.gz 56.73MB Kongsberg multibeam vendor format
0512_20121018_083210_FK_EM710.all.mb58.gz 27.30MB Kongsberg multibeam vendor format
0513_20121018_083519_FK_EM710.all.mb58.gz 270.16MB Kongsberg multibeam vendor format
0514_20121018_090519_FK_EM710.all.mb58.gz 15.87MB Kongsberg multibeam vendor format
0515_20121018_090703_FK_EM710.all.mb58.gz 33.09MB Kongsberg multibeam vendor format
0516_20121018_091037_FK_EM710.all.mb58.gz 22.96MB Kongsberg multibeam vendor format
0517_20121018_091310_FK_EM710.all.mb58.gz 32.17MB Kongsberg multibeam vendor format
0518_20121018_091637_FK_EM710.all.mb58.gz 10.87MB Kongsberg multibeam vendor format
0519_20121018_091748_FK_EM710.all.mb58.gz 68.87MB Kongsberg multibeam vendor format
0520_20121018_092507_FK_EM710.all.mb58.gz 22.64MB Kongsberg multibeam vendor format
0521_20121018_092737_FK_EM710.all.mb58.gz 116.67MB Kongsberg multibeam vendor format
0522_20121018_094007_FK_EM710.all.mb58.gz 30.97MB Kongsberg multibeam vendor format
0523_20121018_094331_FK_EM710.all.mb58.gz 92.01MB Kongsberg multibeam vendor format
0524_20121018_095316_FK_EM710.all.mb58.gz 21.52MB Kongsberg multibeam vendor format
0525_20121018_095537_FK_EM710.all.mb58.gz 76.69MB Kongsberg multibeam vendor format
0526_20121018_100344_FK_EM710.all.mb58.gz 59.8KB Kongsberg multibeam vendor format
0527_20121018_100344_FK_EM710.all.mb58.gz 33.41MB Kongsberg multibeam vendor format
0528_20121018_100717_FK_EM710.all.mb58.gz 80.32MB Kongsberg multibeam vendor format
0529_20121018_101602_FK_EM710.all.mb58.gz 70.17MB Kongsberg multibeam vendor format
0530_20121018_102340_FK_EM710.all.mb58.gz 40.78MB Kongsberg multibeam vendor format
0531_20121018_102816_FK_EM710.all.mb58.gz 87.96MB Kongsberg multibeam vendor format
0532_20121018_103800_FK_EM710.all.mb58.gz 217.52MB Kongsberg multibeam vendor format
0533_20121018_110109_FK_EM710.all.mb58.gz 89.33MB Kongsberg multibeam vendor format
0534_20121018_111027_FK_EM710.all.mb58.gz 296.12MB Kongsberg multibeam vendor format
0535_20121018_114027_FK_EM710.all.mb58.gz 321.19MB Kongsberg multibeam vendor format
0536_20121018_121027_FK_EM710.all.mb58.gz 348.34MB Kongsberg multibeam vendor format
0537_20121018_124027_FK_EM710.all.mb58.gz 135.27MB Kongsberg multibeam vendor format
0538_20121018_152657_FK_EM710.all.mb58.gz 356.67MB Kongsberg multibeam vendor format
0539_20121018_155657_FK_EM710.all.mb58.gz 360.04MB Kongsberg multibeam vendor format
0540_20121018_162657_FK_EM710.all.mb58.gz 364.24MB Kongsberg multibeam vendor format
0541_20121018_165657_FK_EM710.all.mb58.gz 377.19MB Kongsberg multibeam vendor format
0542_20121018_172657_FK_EM710.all.mb58.gz 158.01MB Kongsberg multibeam vendor format
0543_20121019_001736_FK_EM710.all.mb58.gz 154.26MB Kongsberg multibeam vendor format
0544_20121019_003215_FK_EM710.all.mb58.gz 181.13MB Kongsberg multibeam vendor format
0545_20121019_004845_FK_EM710.all.mb58.gz 29.89MB Kongsberg multibeam vendor format
0546_20121019_005131_FK_EM710.all.mb58.gz 166.94MB Kongsberg multibeam vendor format
0547_20121019_010644_FK_EM710.all.mb58.gz 82.05MB Kongsberg multibeam vendor format
0548_20121019_011446_FK_EM710.all.mb58.gz 174.90MB Kongsberg multibeam vendor format
0549_20121019_013043_FK_EM710.all.mb58.gz 72.93MB Kongsberg multibeam vendor format
0550_20121019_013723_FK_EM710.all.mb58.gz 162.54MB Kongsberg multibeam vendor format
0551_20121019_015214_FK_EM710.all.mb58.gz 71.34MB Kongsberg multibeam vendor format
0552_20121019_015912_FK_EM710.all.mb58.gz 175.14MB Kongsberg multibeam vendor format
0553_20121019_021512_FK_EM710.all.mb58.gz 56.40MB Kongsberg multibeam vendor format
0554_20121019_022020_FK_EM710.all.mb58.gz 220.30MB Kongsberg multibeam vendor format
0555_20121019_024057_FK_EM710.all.mb58.gz 44.73MB Kongsberg multibeam vendor format
0556_20121019_024511_FK_EM710.all.mb58.gz 81.84MB Kongsberg multibeam vendor format
0557_20121019_025259_FK_EM710.all.mb58.gz 55.38MB Kongsberg multibeam vendor format
0558_20121019_025825_FK_EM710.all.mb58.gz 83.34MB Kongsberg multibeam vendor format
0559_20121019_030616_FK_EM710.all.mb58.gz 49.42MB Kongsberg multibeam vendor format
0560_20121019_031100_FK_EM710.all.mb58.gz 64.22MB Kongsberg multibeam vendor format
0561_20121019_031710_FK_EM710.all.mb58.gz 72.18MB Kongsberg multibeam vendor format
0562_20121019_032414_FK_EM710.all.mb58.gz 173.99MB Kongsberg multibeam vendor format
0563_20121019_034018_FK_EM710.all.mb58.gz 49.52MB Kongsberg multibeam vendor format
0564_20121019_034451_FK_EM710.all.mb58.gz 91.96MB Kongsberg multibeam vendor format
0565_20121019_035315_FK_EM710.all.mb58.gz 29.97MB Kongsberg multibeam vendor format
0566_20121019_035608_FK_EM710.all.mb58.gz 114.34MB Kongsberg multibeam vendor format
0567_20121019_040640_FK_EM710.all.mb58.gz 46.11MB Kongsberg multibeam vendor format
0568_20121019_041053_FK_EM710.all.mb58.gz 91.69MB Kongsberg multibeam vendor format
0569_20121019_041916_FK_EM710.all.mb58.gz 212.7KB Kongsberg multibeam vendor format
0570_20121019_041917_FK_EM710.all.mb58.gz 79.89MB Kongsberg multibeam vendor format
0571_20121019_042650_FK_EM710.all.mb58.gz 86.14MB Kongsberg multibeam vendor format
0572_20121019_043436_FK_EM710.all.mb58.gz 87.14MB Kongsberg multibeam vendor format
0573_20121019_044226_FK_EM710.all.mb58.gz 74.85MB Kongsberg multibeam vendor format
0574_20121019_044916_FK_EM710.all.mb58.gz 61.00MB Kongsberg multibeam vendor format
0575_20121019_045459_FK_EM710.all.mb58.gz 69.15MB Kongsberg multibeam vendor format
0576_20121019_050114_FK_EM710.all.mb58.gz 53.88MB Kongsberg multibeam vendor format
0577_20121019_050615_FK_EM710.all.mb58.gz 16.04MB Kongsberg multibeam vendor format
0578_20121019_050741_FK_EM710.all.mb58.gz 3.99MB Kongsberg multibeam vendor format
0579_20121019_050803_FK_EM710.all.mb58.gz 45.26MB Kongsberg multibeam vendor format
0580_20121019_051215_FK_EM710.all.mb58.gz 106.42MB Kongsberg multibeam vendor format
0581_20121019_052202_FK_EM710.all.mb58.gz 23.50MB Kongsberg multibeam vendor format
0582_20121019_052420_FK_EM710.all.mb58.gz 10.02MB Kongsberg multibeam vendor format
0583_20121019_052517_FK_EM710.all.mb58.gz 25.68MB Kongsberg multibeam vendor format
0584_20121019_052747_FK_EM710.all.mb58.gz 44.86MB Kongsberg multibeam vendor format
0585_20121019_053201_FK_EM710.all.mb58.gz 36.85MB Kongsberg multibeam vendor format
0586_20121019_053541_FK_EM710.all.mb58.gz 156.02MB Kongsberg multibeam vendor format
0587_20121019_055008_FK_EM710.all.mb58.gz 44.24MB Kongsberg multibeam vendor format
0588_20121019_055415_FK_EM710.all.mb58.gz 147.58MB Kongsberg multibeam vendor format
0589_20121019_060756_FK_EM710.all.mb58.gz 41.79MB Kongsberg multibeam vendor format
0590_20121019_061206_FK_EM710.all.mb58.gz 26.36MB Kongsberg multibeam vendor format
0591_20121019_061438_FK_EM710.all.mb58.gz 35.26MB Kongsberg multibeam vendor format
0592_20121019_061804_FK_EM710.all.mb58.gz 37.34MB Kongsberg multibeam vendor format
0593_20121019_062146_FK_EM710.all.mb58.gz 138.84MB Kongsberg multibeam vendor format
0594_20121019_063436_FK_EM710.all.mb58.gz 44.69MB Kongsberg multibeam vendor format
0595_20121019_063845_FK_EM710.all.mb58.gz 162.25MB Kongsberg multibeam vendor format
0596_20121019_065347_FK_EM710.all.mb58.gz 40.82MB Kongsberg multibeam vendor format
0597_20121019_065752_FK_EM710.all.mb58.gz 171.13MB Kongsberg multibeam vendor format
0598_20121019_071350_FK_EM710.all.mb58.gz 39.97MB Kongsberg multibeam vendor format
0599_20121019_071734_FK_EM710.all.mb58.gz 149.38MB Kongsberg multibeam vendor format
0600_20121019_073126_FK_EM710.all.mb58.gz 38.61MB Kongsberg multibeam vendor format
0601_20121019_073518_FK_EM710.all.mb58.gz 158.94MB Kongsberg multibeam vendor format
0602_20121019_075007_FK_EM710.all.mb58.gz 39.61MB Kongsberg multibeam vendor format
0603_20121019_075350_FK_EM710.all.mb58.gz 152.26MB Kongsberg multibeam vendor format
0604_20121019_080759_FK_EM710.all.mb58.gz 35.86MB Kongsberg multibeam vendor format
0605_20121019_081133_FK_EM710.all.mb58.gz 142.05MB Kongsberg multibeam vendor format
0606_20121019_082447_FK_EM710.all.mb58.gz 41.97MB Kongsberg multibeam vendor format
0607_20121019_082844_FK_EM710.all.mb58.gz 151.85MB Kongsberg multibeam vendor format
0608_20121019_084252_FK_EM710.all.mb58.gz 55.82MB Kongsberg multibeam vendor format
0609_20121019_084824_FK_EM710.all.mb58.gz 319.74MB Kongsberg multibeam vendor format
0610_20121019_091824_FK_EM710.all.mb58.gz 13.26MB Kongsberg multibeam vendor format
0611_20121019_091943_FK_EM710.all.mb58.gz 133.79MB Kongsberg multibeam vendor format
0612_20121019_093214_FK_EM710.all.mb58.gz 24.05MB Kongsberg multibeam vendor format
0613_20121019_093432_FK_EM710.all.mb58.gz 61.21MB Kongsberg multibeam vendor format
0614_20121019_094011_FK_EM710.all.mb58.gz 22.46MB Kongsberg multibeam vendor format
0615_20121019_094222_FK_EM710.all.mb58.gz 16.68MB Kongsberg multibeam vendor format
0616_20121019_094357_FK_EM710.all.mb58.gz 26.64MB Kongsberg multibeam vendor format
0617_20121019_094632_FK_EM710.all.mb58.gz 87.81MB Kongsberg multibeam vendor format
0618_20121019_095451_FK_EM710.all.mb58.gz 22.57MB Kongsberg multibeam vendor format
0619_20121019_095706_FK_EM710.all.mb58.gz 39.60MB Kongsberg multibeam vendor format
0620_20121019_100053_FK_EM710.all.mb58.gz 29.76MB Kongsberg multibeam vendor format
0621_20121019_100348_FK_EM710.all.mb58.gz 37.05MB Kongsberg multibeam vendor format
0622_20121019_100720_FK_EM710.all.mb58.gz 47.01MB Kongsberg multibeam vendor format
0623_20121019_101201_FK_EM710.all.mb58.gz 139.37MB Kongsberg multibeam vendor format
0624_20121019_102502_FK_EM710.all.mb58.gz 23.76MB Kongsberg multibeam vendor format
0625_20121019_102717_FK_EM710.all.mb58.gz 143.10MB Kongsberg multibeam vendor format
0626_20121019_104043_FK_EM710.all.mb58.gz 40.43MB Kongsberg multibeam vendor format
0627_20121019_104446_FK_EM710.all.mb58.gz 143.10MB Kongsberg multibeam vendor format
0628_20121019_105810_FK_EM710.all.mb58.gz 27.05MB Kongsberg multibeam vendor format
0629_20121019_110045_FK_EM710.all.mb58.gz 141.96MB Kongsberg multibeam vendor format
0630_20121019_111406_FK_EM710.all.mb58.gz 183.86MB Kongsberg multibeam vendor format
0631_20121019_113139_FK_EM710.all.mb58.gz 23.06MB Kongsberg multibeam vendor format
0632_20121019_113351_FK_EM710.all.mb58.gz 142.58MB Kongsberg multibeam vendor format
0633_20121019_114718_FK_EM710.all.mb58.gz 293.11MB Kongsberg multibeam vendor format
0634_20121019_121718_FK_EM710.all.mb58.gz 254.14MB Kongsberg multibeam vendor format
0635_20121019_124719_FK_EM710.all.mb58.gz 109.86MB Kongsberg multibeam vendor format
0636_20121019_160045_FK_EM710.all.mb58.gz 173.11MB Kongsberg multibeam vendor format
0638_20121019_162042_FK_EM710.all.mb58.gz 2.69MB Kongsberg multibeam vendor format
0639_20121019_162100_FK_EM710.all.mb58.gz 5.14MB Kongsberg multibeam vendor format
0640_20121019_162135_FK_EM710.all.mb58.gz 52.77MB Kongsberg multibeam vendor format
0641_20121019_162730_FK_EM710.all.mb58.gz 37.39MB Kongsberg multibeam vendor format
0642_20121019_163803_FK_EM710.all.mb58.gz 176.50MB Kongsberg multibeam vendor format
0643_20121019_165638_FK_EM710.all.mb58.gz 228.40MB Kongsberg multibeam vendor format
0644_20121019_171906_FK_EM710.all.mb58.gz 49.82MB Kongsberg multibeam vendor format
0645_20121019_172356_FK_EM710.all.mb58.gz 216.47MB Kongsberg multibeam vendor format
0646_20121019_174514_FK_EM710.all.mb58.gz 37.03MB Kongsberg multibeam vendor format
0647_20121019_174911_FK_EM710.all.mb58.gz 224.38MB Kongsberg multibeam vendor format
0648_20121019_181118_FK_EM710.all.mb58.gz 51.39MB Kongsberg multibeam vendor format
0649_20121019_181618_FK_EM710.all.mb58.gz 232.78MB Kongsberg multibeam vendor format
0650_20121019_183915_FK_EM710.all.mb58.gz 38.35MB Kongsberg multibeam vendor format
0651_20121019_184321_FK_EM710.all.mb58.gz 251.38MB Kongsberg multibeam vendor format
0652_20121019_190809_FK_EM710.all.mb58.gz 48.55MB Kongsberg multibeam vendor format
0653_20121019_191250_FK_EM710.all.mb58.gz 26.41MB Kongsberg multibeam vendor format
0654_20121019_191520_FK_EM710.all.mb58.gz 218.83MB Kongsberg multibeam vendor format
0655_20121019_193700_FK_EM710.all.mb58.gz 41.76MB Kongsberg multibeam vendor format
0656_20121019_194128_FK_EM710.all.mb58.gz 239.25MB Kongsberg multibeam vendor format
0657_20121019_200502_FK_EM710.all.mb58.gz 45.57MB Kongsberg multibeam vendor format
0658_20121019_200927_FK_EM710.all.mb58.gz 249.32MB Kongsberg multibeam vendor format
0659_20121019_203359_FK_EM710.all.mb58.gz 33.66MB Kongsberg multibeam vendor format
0660_20121019_203736_FK_EM710.all.mb58.gz 251.69MB Kongsberg multibeam vendor format
0661_20121019_210221_FK_EM710.all.mb58.gz 31.10MB Kongsberg multibeam vendor format
0662_20121019_210521_FK_EM710.all.mb58.gz 255.42MB Kongsberg multibeam vendor format
0663_20121019_213026_FK_EM710.all.mb58.gz 24.46MB Kongsberg multibeam vendor format
0664_20121019_213302_FK_EM710.all.mb58.gz 230.12MB Kongsberg multibeam vendor format
0665_20121019_215541_FK_EM710.all.mb58.gz 31.54MB Kongsberg multibeam vendor format
0666_20121019_215845_FK_EM710.all.mb58.gz 248.74MB Kongsberg multibeam vendor format
0667_20121019_222315_FK_EM710.all.mb58.gz 289.80MB Kongsberg multibeam vendor format
0668_20121019_225315_FK_EM710.all.mb58.gz 295.90MB Kongsberg multibeam vendor format
0669_20121019_232316_FK_EM710.all.mb58.gz 298.88MB Kongsberg multibeam vendor format
0670_20121019_235316_FK_EM710.all.mb58.gz 302.40MB Kongsberg multibeam vendor format
0671_20121020_002316_FK_EM710.all.mb58.gz 307.60MB Kongsberg multibeam vendor format
0672_20121020_005316_FK_EM710.all.mb58.gz 313.81MB Kongsberg multibeam vendor format
0673_20121020_012316_FK_EM710.all.mb58.gz 315.87MB Kongsberg multibeam vendor format
0674_20121020_015316_FK_EM710.all.mb58.gz 303.20MB Kongsberg multibeam vendor format
0675_20121020_022316_FK_EM710.all.mb58.gz 104.69MB Kongsberg multibeam vendor format
0676_20121020_023405_FK_EM710.all.mb58.gz 0.63MB Kongsberg multibeam vendor format
0677_20121020_023409_FK_EM710.all.mb58.gz 3.08MB Kongsberg multibeam vendor format
0678_20121020_023428_FK_EM710.all.mb58.gz 281.46MB Kongsberg multibeam vendor format
0679_20121020_030212_FK_EM710.all.mb58.gz 56.25MB Kongsberg multibeam vendor format
0680_20121020_030738_FK_EM710.all.mb58.gz 301.29MB Kongsberg multibeam vendor format
0681_20121020_033720_FK_EM710.all.mb58.gz 47.18MB Kongsberg multibeam vendor format
0682_20121020_034221_FK_EM710.all.mb58.gz 292.27MB Kongsberg multibeam vendor format
0683_20121020_041105_FK_EM710.all.mb58.gz 41.94MB Kongsberg multibeam vendor format
0684_20121020_041507_FK_EM710.all.mb58.gz 305.49MB Kongsberg multibeam vendor format
0685_20121020_044507_FK_EM710.all.mb58.gz 4.95MB Kongsberg multibeam vendor format
0686_20121020_044537_FK_EM710.all.mb58.gz 29.73MB Kongsberg multibeam vendor format
0687_20121020_044847_FK_EM710.all.mb58.gz 294.01MB Kongsberg multibeam vendor format
0688_20121020_051739_FK_EM710.all.mb58.gz 41.77MB Kongsberg multibeam vendor format
0689_20121020_052141_FK_EM710.all.mb58.gz 306.16MB Kongsberg multibeam vendor format
0690_20121020_055141_FK_EM710.all.mb58.gz 1.95MB Kongsberg multibeam vendor format
0691_20121020_055153_FK_EM710.all.mb58.gz 30.25MB Kongsberg multibeam vendor format
0692_20121020_055506_FK_EM710.all.mb58.gz 285.08MB Kongsberg multibeam vendor format
0693_20121020_062257_FK_EM710.all.mb58.gz 35.34MB Kongsberg multibeam vendor format
0694_20121020_062621_FK_EM710.all.mb58.gz 306.42MB Kongsberg multibeam vendor format
0695_20121020_065621_FK_EM710.all.mb58.gz 10.13MB Kongsberg multibeam vendor format
0696_20121020_065723_FK_EM710.all.mb58.gz 32.67MB Kongsberg multibeam vendor format
0697_20121020_070053_FK_EM710.all.mb58.gz 286.28MB Kongsberg multibeam vendor format
0698_20121020_072851_FK_EM710.all.mb58.gz 35.15MB Kongsberg multibeam vendor format
0699_20121020_073213_FK_EM710.all.mb58.gz 297.60MB Kongsberg multibeam vendor format
0700_20121020_080113_FK_EM710.all.mb58.gz 41.76MB Kongsberg multibeam vendor format
0701_20121020_080540_FK_EM710.all.mb58.gz 61.20MB Kongsberg multibeam vendor format
0702_20121020_081152_FK_EM710.all.mb58.gz 313.73MB Kongsberg multibeam vendor format
0703_20121020_084152_FK_EM710.all.mb58.gz 326.77MB Kongsberg multibeam vendor format
0704_20121020_091152_FK_EM710.all.mb58.gz 333.75MB Kongsberg multibeam vendor format
0705_20121020_094152_FK_EM710.all.mb58.gz 347.37MB Kongsberg multibeam vendor format
0706_20121020_101152_FK_EM710.all.mb58.gz 391.35MB Kongsberg multibeam vendor format
0707_20121020_104152_FK_EM710.all.mb58.gz 465.87MB Kongsberg multibeam vendor format
0708_20121020_111152_FK_EM710.all.mb58.gz 534.23MB Kongsberg multibeam vendor format
0709_20121020_114152_FK_EM710.all.mb58.gz 579.14MB Kongsberg multibeam vendor format
0710_20121020_121152_FK_EM710.all.mb58.gz 687.98MB Kongsberg multibeam vendor format
0711_20121020_124153_FK_EM710.all.mb58.gz 691.66MB Kongsberg multibeam vendor format
0712_20121020_131153_FK_EM710.all.mb58.gz 10.17MB Kongsberg multibeam vendor format
9999.all.mb58.gz 34.03MB Kongsberg multibeam vendor format
9999_121015052954_tmp.all.mb58.gz 63.6KB Kongsberg multibeam vendor format

Metadata Files: 2

Files File Size Description
FK005C_Multibeam.xml NGDC created ISO metadata
em710_bag_info.tar.gz 45.9KB Additional cruise information

Water Column Sonar Data

Water Column Sonar Data Available: WCSD Map Viewer